Regional Weather Roundup
Issued by NWS

Home | Current Version | Previous Version | Text Only | Print | Product List | Glossary Off
Versions: 1 2 3 4 5 6 7 8 9 10 11 12 13 14 15 16 17 18 19 20 21 22 23 24 25 26 27 28 29 30 31 32 33 34 35 36 37 38 39 40 41 42 43 44 45 46 47 48 49 50

000
ASUS45 KBOI 210410
RWRID
WEATHER ROUNDUP FOR IDAHO
NATIONAL WEATHER SERVICE BOISE ID
1000 PM MDT MON APR 20 2015

NOTE: "FAIR" INDICATES FEW OR NO CLOUDS BELOW 12000 FEET
WITH NO SIGNIFICANT WEATHER AND/OR OBSTRUCTIONS TO VISIBILITY

IDZ012-014-210500-
SOUTHWEST IDAHO


CITY           SKY/WX    TMP DP  RH WIND       PRES   REMARKS
BOISE          CLEAR     63  28  26 CALM      29.81S
CALDWELL       CLEAR     61  30  31 CALM      29.82S
MOUNTAIN HOME  CLEAR     61  29  29 NW7       29.82R
$$

IDZ016-017-210500-
SOUTHCENTRAL IDAHO


CITY           SKY/WX    TMP DP  RH WIND       PRES   REMARKS
BURLEY         CLEAR     48  31  51 S5        29.85S
JEROME         CLEAR     58  26  29 SW5       29.86R
TWIN FALLS     CLEAR     51  26  37 SW7       29.87R
$$

IDZ019>023-210500-
SOUTHEAST IDAHO


CITY           SKY/WX    TMP DP  RH WIND       PRES   REMARKS
IDAHO FALLS    MOCLDY    54  29  38 SE7       29.88S
POCATELLO      CLEAR     53  25  33 S12       29.88R
REXBURG        PTCLDY    50  26  39 S6        29.88R
$$

IDZ006-010-011-018-031-032-210500-
CENTRAL IDAHO MOUNTAINS


CITY           SKY/WX    TMP DP  RH WIND       PRES   REMARKS
MCCALL         CLEAR     48  32  53 NE3       29.89R
HAILEY         CLEAR     48  32  53 CALM      29.90R
STANLEY          N/A     39  25  57 S3        29.95R
SALMON         PTCLDY    55  23  28 SE7       29.83R
CHALLIS        CLEAR     53  20  27 NW8       29.86R
$$

IDZ002-004-006-007-026-210500-
NORTHERN IDAHO


CITY           SKY/WX    TMP DP  RH WIND       PRES   REMARKS
LEWISTON       LGT RAIN  62  34  35 SE5       29.80R
LOWELL           N/A     51  43  74 N3        29.84R
COEUR D`ALENE  CLEAR     55  37  50 E6        29.84R
MULLAN PASS    PTCLDY    45  29  53 NW6       29.93R
$$


USA.gov is the U.S. government's official web portal to all federal, state and local government web resources and services.